Location: Launay
(47.2429°N, 1.5727°E)
Time: 18:07:56
(UTC+00:00)

CZ-4C R/B - Pass Details

Date: 19 May 2025
Orbit: 500 x 1483 km, 63.4° (Epoch: 22 June)

Event Time Altitude Azimuth Distance (km) Brightness Sun altitude
Rises 21:15:59 0° 314° (NW) 3,848 7.5 -14.4°
Reaches altitude 10° 21:18:39 10° 306° (NW) 3,028 6.3 -14.6°
Maximum altitude 21:25:17 36° 244° (WSW) 1,941 4.1 -15.3°
Enters shadow 21:32:31 12° 184° (S) 3,390 4.8 -16.0°
